TLM349 VTBD-VTCC

Flight info

Callsign TLM349
Flight time 1h 0m
Altitude 34000
Route OLVUK3C OLVUK Y26 MARNI MARNI2B
Aircraft B738/M-SDE2E3FGHIRWXY/LB1

Departure

Time 2026-04-17 12:45
Airport Don Mueang International Airport (VTBD)

Arrival

Time 2026-04-17 13:45
Airport Chiang Mai International Airport (VTCC)
Time Latitude Longitude Altitude Speed Heading
2026-04-17 12:11 13.92238 100.60671 15 ft 0 kts 118°
2026-04-17 12:30 13.92244 100.60660 15 ft 2 kts 118°
2026-04-17 12:30 13.92251 100.60646 15 ft 2 kts 118°
2026-04-17 12:31 13.92258 100.60633 15 ft 1 kts 118°
2026-04-17 12:31 13.92263 100.60624 15 ft 2 kts 106°
2026-04-17 12:31 13.92263 100.60609 15 ft 2 kts 72°
2026-04-17 12:31 13.92255 100.60595 15 ft 2 kts 42°
2026-04-17 12:32 13.92249 100.60590 15 ft 1 kts 24°
2026-04-17 12:32 13.92244 100.60588 15 ft 0 kts 28°
2026-04-17 12:33 13.92250 100.60591 15 ft 1 kts 28°
2026-04-17 12:34 13.92259 100.60596 15 ft 3 kts 28°
2026-04-17 12:34 13.92296 100.60617 15 ft 8 kts 28°
2026-04-17 12:35 13.92355 100.60649 15 ft 9 kts 28°
2026-04-17 12:35 13.92410 100.60680 15 ft 8 kts 30°
2026-04-17 12:35 13.92458 100.60708 15 ft 7 kts 30°
2026-04-17 12:35 13.92505 100.60736 15 ft 9 kts 30°
2026-04-17 12:37 13.92683 100.61031 15 ft 4 kts 119°
2026-04-17 12:37 13.92662 100.61070 15 ft 6 kts 119°
2026-04-17 12:38 13.92656 100.61083 15 ft 0 kts 119°
2026-04-17 12:43 13.92652 100.61089 15 ft 4 kts 119°
2026-04-17 12:43 13.92622 100.61143 15 ft 10 kts 120°
2026-04-17 12:44 13.92591 100.61194 15 ft 5 kts 155°
2026-04-17 12:44 13.92545 100.61189 15 ft 8 kts 207°
2026-04-17 12:44 13.92533 100.61182 15 ft 2 kts 209°
2026-04-17 12:44 13.92289 100.61046 15 ft 82 kts 208°
2026-04-17 12:45 13.91541 100.60625 16 ft 158 kts 208°
2026-04-17 12:45 13.90541 100.60047 795 ft 162 kts 204°
2026-04-17 12:45 13.89535 100.59501 1528 ft 177 kts 200°
2026-04-17 12:45 13.88494 100.58804 2169 ft 190 kts 222°
2026-04-17 12:46 13.87949 100.57481 2638 ft 217 kts 263°
2026-04-17 12:46 13.88246 100.55912 3161 ft 236 kts 290°
2026-04-17 12:46 13.88903 100.54316 3751 ft 250 kts 292°
2026-04-17 12:46 13.89597 100.52639 4391 ft 261 kts 292°
2026-04-17 12:47 13.90293 100.50877 5007 ft 274 kts 291°
2026-04-17 12:47 13.91008 100.49026 5746 ft 280 kts 292°
2026-04-17 12:47 13.91710 100.47199 6711 ft 277 kts 292°
2026-04-17 12:47 13.92416 100.45369 7478 ft 281 kts 292°
2026-04-17 12:48 13.93153 100.43462 7895 ft 284 kts 292°
2026-04-17 12:48 13.93889 100.41554 8018 ft 288 kts 292°
2026-04-17 12:48 13.94625 100.39646 8020 ft 284 kts 292°
2026-04-17 12:48 13.95363 100.37734 8413 ft 296 kts 292°
2026-04-17 12:49 13.96212 100.35852 9488 ft 287 kts 300°
2026-04-17 12:49 13.97457 100.34262 10156 ft 293 kts 319°
2026-04-17 12:49 13.99218 100.33133 10620 ft 308 kts 337°
2026-04-17 12:49 14.01328 100.32484 11014 ft 324 kts 348°
2026-04-17 12:50 14.03609 100.32118 11423 ft 339 kts 353°
2026-04-17 12:50 14.06013 100.31845 11831 ft 354 kts 354°
2026-04-17 12:50 14.08490 100.31593 12441 ft 361 kts 354°
2026-04-17 12:50 14.11043 100.31328 12755 ft 364 kts 354°
2026-04-17 12:51 14.13502 100.31062 12798 ft 363 kts 354°
2026-04-17 12:51 14.16015 100.30780 12794 ft 362 kts 354°
2026-04-17 12:51 14.18501 100.30494 12798 ft 361 kts 354°
2026-04-17 12:51 14.21000 100.30203 12796 ft 362 kts 354°
2026-04-17 12:52 14.23543 100.29906 12805 ft 361 kts 354°
2026-04-17 12:52 14.26073 100.29610 12803 ft 362 kts 354°
2026-04-17 12:52 14.28596 100.29314 12801 ft 362 kts 354°
2026-04-17 12:52 14.31103 100.29021 12799 ft 361 kts 354°
2026-04-17 12:53 14.33635 100.28725 12792 ft 361 kts 354°
2026-04-17 12:53 14.36129 100.28432 12794 ft 361 kts 354°
2026-04-17 12:53 14.38649 100.28138 12797 ft 360 kts 354°
2026-04-17 12:53 14.41174 100.27844 12888 ft 369 kts 354°
2026-04-17 12:54 14.43706 100.27548 13774 ft 367 kts 354°
2026-04-17 12:54 14.46251 100.27209 14534 ft 369 kts 351°
2026-04-17 12:54 14.48803 100.26652 15229 ft 374 kts 346°
2026-04-17 12:54 14.51336 100.25917 15916 ft 378 kts 343°
2026-04-17 12:55 14.53879 100.25090 16565 ft 382 kts 342°
2026-04-17 12:55 14.56428 100.24231 17221 ft 385 kts 342°
2026-04-17 12:55 14.58986 100.23370 17834 ft 390 kts 342°
2026-04-17 12:55 14.61570 100.22511 18414 ft 394 kts 342°
2026-04-17 12:56 14.64225 100.21641 19021 ft 398 kts 342°
2026-04-17 12:56 14.66876 100.20778 19623 ft 402 kts 342°
2026-04-17 12:56 14.69563 100.19894 20209 ft 405 kts 341°
2026-04-17 12:56 14.72280 100.18993 20765 ft 409 kts 341°
2026-04-17 12:57 14.74997 100.18087 21315 ft 413 kts 341°
2026-04-17 12:57 14.77751 100.17168 21838 ft 417 kts 341°
2026-04-17 12:57 14.80517 100.16246 22379 ft 420 kts 341°
2026-04-17 12:57 14.83355 100.15300 22934 ft 423 kts 341°
2026-04-17 12:58 14.86179 100.14359 23442 ft 426 kts 341°
2026-04-17 12:58 14.89030 100.13409 23937 ft 430 kts 341°
2026-04-17 12:58 14.91862 100.12465 24437 ft 432 kts 341°
2026-04-17 12:58 14.94783 100.11491 24920 ft 436 kts 341°
2026-04-17 12:59 14.97675 100.10528 25408 ft 438 kts 340°
2026-04-17 12:59 15.00605 100.09551 25866 ft 441 kts 340°
2026-04-17 12:59 15.03517 100.08580 26322 ft 444 kts 340°
2026-04-17 12:59 15.06507 100.07583 26781 ft 447 kts 340°
2026-04-17 13:00 15.09462 100.06599 27211 ft 450 kts 340°
2026-04-17 13:00 15.12485 100.05591 27620 ft 453 kts 340°
2026-04-17 13:00 15.15480 100.04593 28037 ft 456 kts 340°
2026-04-17 13:00 15.18536 100.03574 28464 ft 458 kts 339°
2026-04-17 13:01 15.21605 100.02550 28863 ft 461 kts 339°
2026-04-17 13:01 15.24643 100.01538 29521 ft 457 kts 339°
2026-04-17 13:01 15.27679 100.00526 30117 ft 455 kts 339°
2026-04-17 13:01 15.30682 99.99524 30608 ft 454 kts 339°
2026-04-17 13:02 15.33714 99.98512 31146 ft 453 kts 339°
2026-04-17 13:02 15.36709 99.97512 31619 ft 453 kts 339°
2026-04-17 13:02 15.39435 99.96601 32030 ft 452 kts 339°
2026-04-17 13:02 15.41744 99.95830 32369 ft 452 kts 339°
2026-04-17 13:03 15.45941 99.94427 33109 ft 450 kts 339°
2026-04-17 13:03 15.52184 99.92338 33791 ft 453 kts 339°
2026-04-17 13:04 15.54741 99.91481 33776 ft 449 kts 339°
2026-04-17 13:04 15.59724 99.89814 33766 ft 446 kts 339°
2026-04-17 13:05 15.67930 99.87064 33778 ft 448 kts 339°
2026-04-17 13:05 15.74382 99.84899 33767 ft 448 kts 339°
2026-04-17 13:06 15.80385 99.82883 33779 ft 448 kts 339°
2026-04-17 13:06 15.86340 99.80882 33776 ft 449 kts 339°
2026-04-17 13:07 15.92310 99.78877 33793 ft 448 kts 339°
2026-04-17 13:07 15.98258 99.76876 33768 ft 448 kts 338°
2026-04-17 13:08 16.04220 99.74869 33782 ft 447 kts 338°
2026-04-17 13:08 16.10201 99.72858 33778 ft 447 kts 338°
2026-04-17 13:09 16.16107 99.70870 33779 ft 448 kts 338°
2026-04-17 13:09 16.22075 99.68858 33783 ft 448 kts 338°
2026-04-17 13:10 16.28028 99.66851 33788 ft 448 kts 338°
2026-04-17 13:10 16.33968 99.64846 33795 ft 448 kts 338°
2026-04-17 13:11 16.39921 99.62837 33791 ft 448 kts 338°
2026-04-17 13:11 16.45863 99.60831 33781 ft 447 kts 339°
2026-04-17 13:12 16.51819 99.58820 33787 ft 446 kts 338°
2026-04-17 13:12 16.60735 99.55807 33803 ft 446 kts 338°
2026-04-17 13:13 16.66645 99.53807 33797 ft 447 kts 338°
2026-04-17 13:13 16.72622 99.51784 33804 ft 446 kts 338°
2026-04-17 13:14 16.78529 99.49784 33799 ft 447 kts 338°
2026-04-17 13:14 16.84453 99.47777 33794 ft 447 kts 338°
2026-04-17 13:15 16.90413 99.45756 33784 ft 447 kts 339°
2026-04-17 13:15 16.96338 99.43744 33785 ft 447 kts 338°
2026-04-17 13:16 17.02285 99.41724 33798 ft 446 kts 338°
2026-04-17 13:16 17.08195 99.39715 33798 ft 446 kts 339°
2026-04-17 13:17 17.14129 99.37697 33806 ft 446 kts 338°
2026-04-17 13:17 17.20046 99.35683 33808 ft 446 kts 338°
2026-04-17 13:18 17.25997 99.33657 33816 ft 446 kts 338°
2026-04-17 13:18 17.31928 99.31635 33827 ft 446 kts 338°
2026-04-17 13:19 17.37826 99.29623 33842 ft 446 kts 338°
2026-04-17 13:19 17.42771 99.27937 33855 ft 445 kts 338°
2026-04-17 13:20 17.49696 99.25753 33884 ft 446 kts 342°
2026-04-17 13:20 17.55783 99.24249 33880 ft 446 kts 344°
2026-04-17 13:21 17.61857 99.22813 33418 ft 440 kts 343°
2026-04-17 13:21 17.64824 99.22105 32995 ft 434 kts 343°
2026-04-17 13:21 17.67756 99.21396 32601 ft 428 kts 343°
2026-04-17 13:22 17.70640 99.20690 32113 ft 425 kts 343°
2026-04-17 13:22 17.73553 99.19969 31580 ft 423 kts 343°
2026-04-17 13:22 17.76400 99.19260 31044 ft 422 kts 343°
2026-04-17 13:22 17.79269 99.18542 30511 ft 420 kts 343°
2026-04-17 13:23 17.82093 99.17834 29982 ft 418 kts 343°
2026-04-17 13:23 17.84931 99.17121 29446 ft 417 kts 344°
2026-04-17 13:23 17.87777 99.16406 28907 ft 415 kts 344°
2026-04-17 13:23 17.90596 99.15697 28364 ft 413 kts 344°
2026-04-17 13:24 17.93375 99.14997 27828 ft 411 kts 344°
2026-04-17 13:24 17.96147 99.14299 27296 ft 408 kts 344°
2026-04-17 13:24 17.98935 99.13597 26758 ft 406 kts 344°
2026-04-17 13:24 18.01673 99.12907 26233 ft 403 kts 344°
2026-04-17 13:25 18.04396 99.12222 25710 ft 400 kts 344°
2026-04-17 13:25 18.07073 99.11548 25194 ft 398 kts 344°
2026-04-17 13:25 18.09800 99.10861 24668 ft 395 kts 345°
2026-04-17 13:25 18.12447 99.10293 24160 ft 393 kts 349°
2026-04-17 13:26 18.15189 99.10079 23641 ft 393 kts
2026-04-17 13:26 18.17919 99.10418 23124 ft 392 kts
2026-04-17 13:26 18.20560 99.10997 22612 ft 390 kts 11°
2026-04-17 13:26 18.23213 99.11672 22097 ft 388 kts 12°
2026-04-17 13:27 18.25814 99.12362 21586 ft 386 kts 12°
2026-04-17 13:27 18.28434 99.13055 21071 ft 383 kts 12°
2026-04-17 13:27 18.31014 99.13727 20559 ft 381 kts 12°
2026-04-17 13:27 18.33585 99.14385 20046 ft 379 kts 12°
2026-04-17 13:28 18.36178 99.15041 19531 ft 377 kts 12°
2026-04-17 13:28 18.38723 99.15678 19027 ft 375 kts 11°
2026-04-17 13:28 18.41250 99.16308 18527 ft 373 kts 12°
2026-04-17 13:28 18.43805 99.16942 18024 ft 370 kts 12°
2026-04-17 13:29 18.46291 99.17558 17530 ft 368 kts 12°
2026-04-17 13:29 18.48785 99.18175 17044 ft 366 kts 12°
2026-04-17 13:29 18.51292 99.18796 16554 ft 364 kts 12°
2026-04-17 13:29 18.53758 99.19405 16057 ft 362 kts 12°
2026-04-17 13:30 18.55382 99.19806 15728 ft 361 kts 12°
2026-04-17 13:30 18.58665 99.20557 15165 ft 355 kts
2026-04-17 13:30 18.61060 99.20865 15056 ft 340 kts
2026-04-17 13:30 18.63372 99.20953 14932 ft 327 kts 359°
2026-04-17 13:31 18.65675 99.20943 14547 ft 324 kts 358°
2026-04-17 13:31 18.67908 99.20908 14153 ft 322 kts 358°
2026-04-17 13:31 18.70154 99.20880 13759 ft 320 kts 358°
2026-04-17 13:31 18.72361 99.20870 13591 ft 309 kts 359°
2026-04-17 13:32 18.74475 99.20872 13499 ft 297 kts 359°
2026-04-17 13:32 18.76513 99.20879 13408 ft 286 kts 359°
2026-04-17 13:32 18.78494 99.20887 13324 ft 274 kts 359°
2026-04-17 13:32 18.80369 99.20895 13210 ft 265 kts 359°
2026-04-17 13:33 18.82215 99.20902 12911 ft 264 kts 359°
2026-04-17 13:33 18.84053 99.20909 12590 ft 263 kts 359°
2026-04-17 13:33 18.85882 99.20916 12268 ft 263 kts 359°
2026-04-17 13:33 18.87741 99.20923 11926 ft 263 kts 360°
2026-04-17 13:34 18.89569 99.20930 11642 ft 261 kts 360°
2026-04-17 13:34 18.91386 99.20937 11325 ft 261 kts 360°
2026-04-17 13:34 18.93222 99.20944 11012 ft 260 kts 360°
2026-04-17 13:34 18.95031 99.20951 10709 ft 259 kts 360°
2026-04-17 13:35 18.96844 99.20958 10378 ft 259 kts 360°
2026-04-17 13:35 18.98646 99.20966 10060 ft 259 kts
2026-04-17 13:35 19.00442 99.20969 9744 ft 259 kts 359°
2026-04-17 13:35 19.02233 99.20745 9428 ft 258 kts 343°
2026-04-17 13:36 19.03760 99.19790 9128 ft 256 kts 311°
2026-04-17 13:36 19.04667 99.18160 9115 ft 256 kts 289°
2026-04-17 13:36 19.05066 99.16353 9027 ft 254 kts 275°
2026-04-17 13:36 19.05120 99.14486 8706 ft 254 kts 269°
2026-04-17 13:37 19.05072 99.12612 8383 ft 255 kts 268°
2026-04-17 13:37 19.05035 99.10738 8091 ft 253 kts 269°
2026-04-17 13:37 19.05023 99.08870 7824 ft 251 kts 270°
2026-04-17 13:37 19.05025 99.07037 7530 ft 250 kts 270°
2026-04-17 13:38 19.05031 99.05200 7244 ft 249 kts 270°
2026-04-17 13:38 19.05038 99.03384 6950 ft 249 kts 270°
2026-04-17 13:38 19.05043 99.01547 6663 ft 247 kts 270°
2026-04-17 13:38 19.05003 98.99759 6385 ft 247 kts 264°
2026-04-17 13:39 19.04519 98.98004 6000 ft 250 kts 238°
2026-04-17 13:39 19.03234 98.96778 5685 ft 251 kts 207°
2026-04-17 13:39 19.01575 98.96367 5538 ft 243 kts 185°
2026-04-17 13:39 18.99877 98.96333 5202 ft 241 kts 181°
2026-04-17 13:40 18.98239 98.96339 4768 ft 233 kts 181°
2026-04-17 13:40 18.96659 98.96341 4431 ft 219 kts 182°
2026-04-17 13:40 18.95163 98.96337 4185 ft 207 kts 182°
2026-04-17 13:40 18.93764 98.96332 3974 ft 195 kts 182°
2026-04-17 13:41 18.92443 98.96328 3783 ft 182 kts 183°
2026-04-17 13:41 18.91200 98.96324 3590 ft 171 kts 183°
2026-04-17 13:41 18.90053 98.96323 3469 ft 158 kts 183°
2026-04-17 13:41 18.88938 98.96317 3422 ft 162 kts 183°
2026-04-17 13:42 18.87811 98.96319 3103 ft 161 kts 183°
2026-04-17 13:42 18.86701 98.96329 2919 ft 158 kts 182°
2026-04-17 13:42 18.85588 98.96338 2670 ft 160 kts 182°
2026-04-17 13:42 18.84461 98.96328 2362 ft 163 kts 184°
2026-04-17 13:43 18.83324 98.96323 2084 ft 158 kts 182°
2026-04-17 13:43 18.82226 98.96323 1839 ft 157 kts 182°
2026-04-17 13:43 18.81133 98.96315 1618 ft 157 kts 183°
2026-04-17 13:43 18.80036 98.96310 1430 ft 159 kts 182°
2026-04-17 13:44 18.78921 98.96303 1225 ft 160 kts 182°
2026-04-17 13:44 18.77806 98.96294 1051 ft 153 kts 182°
2026-04-17 13:44 18.76846 98.96291 1030 ft 115 kts 180°
2026-04-17 13:44 18.76191 98.96290 1019 ft 73 kts 180°
2026-04-17 13:45 18.75736 98.96282 1015 ft 52 kts 178°
2026-04-17 13:45 18.75557 98.96309 1015 ft 15 kts 117°
2026-04-17 13:45 18.75543 98.96414 1013 ft 11 kts 91°
2026-04-17 13:45 18.75562 98.96496 1012 ft 11 kts 40°
2026-04-17 13:46 18.75644 98.96514 1012 ft 14 kts
2026-04-17 13:46 18.75742 98.96514 1013 ft 12 kts
2026-04-17 13:46 18.75824 98.96514 1015 ft 11 kts 360°
2026-04-17 13:46 18.75912 98.96514 1015 ft 13 kts 360°
2026-04-17 13:47 18.76013 98.96513 1015 ft 14 kts 360°
2026-04-17 13:47 18.76110 98.96514 1015 ft 7 kts
2026-04-17 13:47 18.76141 98.96514 1015 ft 5 kts
2026-04-17 13:47 18.76233 98.96514 1016 ft 17 kts
2026-04-17 13:48 18.76348 98.96515 1018 ft 16 kts
2026-04-17 13:48 18.76474 98.96515 1020 ft 18 kts
2026-04-17 13:48 18.76594 98.96515 1023 ft 15 kts 360°
2026-04-17 13:48 18.76686 98.96516 1024 ft 9 kts
2026-04-17 13:49 18.76730 98.96547 1024 ft 2 kts 70°
2026-04-17 13:49 18.76731 98.96551 1023 ft 0 kts 73°
2026-04-17 13:50 18.76735 98.96568 1023 ft 9 kts 82°
2026-04-17 13:50 18.76783 98.96642 1023 ft 2 kts 14°
2026-04-17 13:50 18.76804 98.96646 1024 ft 7 kts
2026-04-17 13:51 18.76891 98.96648 1025 ft 12 kts 358°
2026-04-17 13:51 18.76962 98.96648 1025 ft 9 kts 23°
2026-04-17 13:51 18.76980 98.96707 1024 ft 4 kts 91°
2026-04-17 13:51 18.76980 98.96735 1024 ft 1 kts 89°
2026-04-17 13:52 18.76980 98.96738 1024 ft 0 kts 89°